Weather History for K4A6 - January, 2013

Change the Weather History Date:

Tuesday, January 1, 2013

  Actual Average (KHSV) Record (KHSV)
Temperature  
Mean Temperature 46 °F 42 °F  
Max Temperature 50 °F 51 °F 79 °F (1952)
Min Temperature 41 °F 32 °F 7 °F (1977)
Degree Days  
Heating Degree Days 20 24  
Month to date heating degree days 24  
Since 1 July heating degree days 1205  
Cooling Degree Days 0 0  
Month to date cooling degree days 0  
Year to date cooling degree days 0  
Moisture  
Dew Point 45 °F    
Average Humidity 96    
Maximum Humidity 100    
Minimum Humidity 66    
Precipitation  
Precipitation 1.06 in 0.16 in 3.48 in (2011)
Month to date precipitation 0.16  
Year to date precipitation 0.16  
Snow  
Snow 0.00 in - - ()
Month to date snowfall  
Since 1 July snowfall  
Snow Depth -    
Sea Level Pressure  
Sea Level Pressure 30.04 in    
Wind  
Wind Speed 4 mph (NNW)    
Max Wind Speed 13 mph    
Max Gust Speed 23 mph    
Visibility 2 miles    
Events Rain    
T = Trace of Precipitation, MM = Missing Value Source: NWS Daily Summary

Daily Weather History Graph

Daily Weather History Graph

Search for Another Location

Airport or City:

Trip Planner

Search our weather history database for the weather conditions in past years. The results will help you decide how hot, cold, wet, or windy it might be!

Date:

Astronomy

Jan. 01, 2013 Rise Set
Actual Time 6:51 AM CST 4:44 PM CST
Civil Twilight 6:23 AM CST 5:12 PM CST
Nautical Twilight 5:51 AM CST 5:43 PM CST
Astronomical Twilight 5:21 AM CST 6:14 PM CST
Moon 9:03 PM CST (1/1) 9:13 AM CST (1/1)
Length of Visible Light 10h 48m
Length of Day
9h 53m
Waning Gibbous, 83% of the Moon is Illuminated
Jan 1
Waning Gibbous
Jan 4
Last Quarter
Jan 11
New
Jan 18
First Quarter
Jan 26
Full

Hourly Weather History & Observations

Time (CST) Temp. Windchill Dew Point Humidity Pressure Visibility Wind Dir Wind Speed Gust Speed Precip Events Conditions
12:15 AM 48.2 °F - 37.4 °F 66% 30.07 in 4.0 mi SW 5.8 mph - N/A   Haze
12:35 AM 50.0 °F - 39.2 °F 66% 30.07 in 4.0 mi SW 8.1 mph - N/A   Haze
12:55 AM 50.0 °F - 39.2 °F 66% 30.06 in 5.0 mi SSW 10.4 mph - N/A   Haze
1:15 AM 50.0 °F - 39.2 °F 66% 30.05 in 3.0 mi SSW 4.6 mph - N/A   Haze
1:35 AM 48.2 °F - 39.2 °F 71% 30.05 in 4.0 mi SSW 4.6 mph - N/A   Haze
1:55 AM 50.0 °F - 39.2 °F 66% 30.06 in 3.0 mi SW 8.1 mph - N/A Rain Light Rain
2:15 AM 48.2 °F - 41.0 °F 76% 30.06 in 2.0 mi SW 5.8 mph - N/A Rain Light Rain
2:35 AM 46.4 °F 45.2 °F 42.8 °F 87% 30.06 in 1.8 mi WSW 3.5 mph - 0.02 in Rain Light Rain
2:55 AM 46.4 °F - 44.6 °F 93% 30.05 in 2.0 mi Calm Calm - 0.03 in Rain Light Rain
3:15 AM 44.6 °F - 44.6 °F 100% 30.06 in 1.5 mi Calm Calm - 0.02 in Rain Light Rain
3:35 AM 44.6 °F - 44.6 °F 100% 30.06 in 2.0 mi Calm Calm - 0.04 in Rain Light Rain
3:55 AM 44.6 °F 43.1 °F 44.6 °F 100% 30.06 in 1.5 mi North 3.5 mph - 0.07 in Rain Rain
4:15 AM 44.6 °F - 44.6 °F 100% 30.07 in 1.5 mi Calm Calm - 0.04 in Rain Light Rain
4:35 AM 44.6 °F - 44.6 °F 100% 30.08 in 1.5 mi Calm Calm - 0.11 in Rain Rain
4:55 AM 44.6 °F - 44.6 °F 100% 30.08 in 1.5 mi Calm Calm - 0.18 in Rain Rain
5:15 AM 44.6 °F - 44.6 °F 100% 30.09 in 1.2 mi Calm Calm - 0.04 in Rain Light Rain
5:35 AM 44.6 °F 42.2 °F 44.6 °F 100% 30.08 in 1.8 mi SE 4.6 mph - 0.08 in Rain Light Rain
5:55 AM 44.6 °F - 44.6 °F 100% 30.07 in 1.8 mi Calm Calm - 0.12 in Rain Light Rain
6:15 AM 44.6 °F - 44.6 °F 100% 30.08 in 1.2 mi Calm Calm - 0.03 in Rain Light Rain
6:35 AM 44.6 °F - 44.6 °F 100% 30.08 in 1.2 mi Calm Calm - 0.06 in Rain Light Rain
6:55 AM 44.6 °F - 44.6 °F 100% 30.06 in 1.2 mi Calm Calm - 0.09 in Rain Light Rain
7:15 AM 44.6 °F 43.1 °F 44.6 °F 100% 30.07 in 0.8 mi West 3.5 mph - N/A Rain Light Rain
7:35 AM 44.6 °F 42.2 °F 44.6 °F 100% 30.05 in 0.8 mi ENE 4.6 mph - 0.02 in Rain Light Rain
7:55 AM 44.6 °F 43.1 °F 44.6 °F 100% 30.05 in 1.0 mi NNW 3.5 mph - 0.04 in Rain Light Rain
8:15 AM 44.6 °F 43.1 °F 44.6 °F 100% 30.07 in 1.2 mi NNW 3.5 mph - N/A Rain Light Rain
8:35 AM 46.4 °F 45.2 °F 46.4 °F 100% 30.07 in 1.2 mi NE 3.5 mph - 0.01 in Rain Light Rain
8:55 AM 46.4 °F - 46.4 °F 100% 30.07 in 1.2 mi Calm Calm - 0.02 in Rain Light Rain
9:15 AM 46.4 °F - 46.4 °F 100% 30.08 in 1.2 mi Calm Calm - 0.02 in Rain Light Rain
9:35 AM 46.4 °F 45.2 °F 46.4 °F 100% 30.05 in 1.2 mi NNE 3.5 mph - 0.05 in Rain Light Rain
9:55 AM 46.4 °F 44.3 °F 46.4 °F 100% 30.06 in 1.2 mi NNW 4.6 mph - 0.06 in Rain Light Rain
10:15 AM 46.4 °F - 46.4 °F 100% 30.08 in 1.2 mi Calm Calm - 0.03 in Rain Light Rain
10:35 AM 46.4 °F - 46.4 °F 100% 30.07 in 1.2 mi Calm Calm - 0.06 in Rain Light Rain
10:55 AM 46.4 °F - 46.4 °F 100% 30.05 in 1.2 mi Calm Calm - 0.08 in Rain Light Rain
11:15 AM 48.2 °F - 48.2 °F 100% 30.05 in 1.2 mi Calm Calm - 0.02 in Rain Light Rain
11:35 AM 48.2 °F - 48.2 °F 100% 30.05 in 1.0 mi Calm Calm - 0.05 in Rain Light Rain
11:55 AM 48.2 °F - 48.2 °F 100% 30.03 in 1.2 mi Calm Calm - 0.07 in Rain Light Rain
12:15 PM 48.2 °F - 48.2 °F 100% 30.01 in 1.2 mi Calm Calm - 0.01 in Rain Light Rain
12:35 PM 48.2 °F - 48.2 °F 100% 30.00 in 1.5 mi Calm Calm - 0.03 in Rain Light Rain
12:55 PM 48.2 °F - 48.2 °F 100% 29.99 in 1.2 mi NE 3.5 mph - 0.05 in Rain Light Rain
1:15 PM 48.2 °F - 48.2 °F 100% 29.99 in 1.5 mi Calm Calm - 0.02 in Rain Light Rain
1:35 PM 48.2 °F - 48.2 °F 100% 29.99 in 1.5 mi Calm Calm - 0.04 in Rain Light Rain
1:55 PM 48.2 °F - 48.2 °F 100% 29.99 in 1.5 mi Calm Calm - 0.06 in Rain Light Rain
2:15 PM 48.2 °F - 48.2 °F 100% 29.97 in 1.2 mi North 3.5 mph - 0.02 in Rain Light Rain
2:35 PM 48.2 °F - 48.2 °F 100% 29.99 in 1.5 mi NNW 3.5 mph - 0.03 in Rain Light Rain
2:55 PM 48.2 °F - 48.2 °F 100% 30.00 in 1.2 mi Calm Calm - 0.04 in Rain Light Rain
3:15 PM 48.2 °F - 48.2 °F 100% 29.99 in 1.5 mi Calm Calm - 0.01 in Rain Light Rain
3:35 PM 48.2 °F - 48.2 °F 100% 29.98 in 1.5 mi Calm Calm - 0.02 in Rain Light Rain
3:55 PM 48.2 °F - 48.2 °F 100% 29.98 in 1.8 mi NNW 3.5 mph - 0.02 in Rain Light Rain
4:15 PM 48.2 °F - 48.2 °F 100% 29.99 in 2.5 mi Calm Calm - 0.01 in   Overcast
4:35 PM 48.2 °F - 48.2 °F 100% 30.00 in 2.5 mi Calm Calm - 0.01 in Rain Light Rain
4:55 PM 48.2 °F - 48.2 °F 100% 29.99 in 1.8 mi NNE 4.6 mph - 0.01 in Rain Light Rain
5:15 PM 48.2 °F - 48.2 °F 100% 30.01 in 2.0 mi North 10.4 mph - N/A Rain Light Rain
5:35 PM 48.2 °F - 46.4 °F 93% 30.01 in 1.8 mi North 8.1 mph - 0.03 in Rain Rain
5:55 PM 46.4 °F 42.9 °F 46.4 °F 100% 30.03 in 2.5 mi North 6.9 mph - 0.06 in Rain Light Rain
6:15 PM 46.4 °F 43.5 °F 46.4 °F 100% 30.03 in 2.0 mi North 5.8 mph - 0.01 in Rain Light Rain
6:35 PM 46.4 °F 45.2 °F 46.4 °F 100% 30.02 in 2.5 mi NE 3.5 mph - 0.01 in Rain Light Rain
6:55 PM 46.4 °F 45.2 °F 46.4 °F 100% 30.03 in 2.5 mi NE 3.5 mph - 0.01 in Rain Light Rain
7:15 PM 46.4 °F - 46.4 °F 100% 30.03 in 2.0 mi Calm Calm - N/A Rain Light Rain
7:35 PM 46.4 °F - 46.4 °F 100% 30.03 in 2.5 mi Calm Calm - N/A Rain Light Rain
7:55 PM 46.4 °F 44.3 °F 46.4 °F 100% 30.02 in 2.5 mi ESE 4.6 mph - 0.02 in Rain Light Rain
8:15 PM 46.4 °F 44.3 °F 46.4 °F 100% 30.05 in 2.5 mi NW 4.6 mph - 0.01 in Rain Light Rain
8:35 PM 46.4 °F - 46.4 °F 100% 30.04 in 3.0 mi Calm Calm - 0.01 in Rain Light Rain
8:55 PM 46.4 °F - 46.4 °F 100% 30.03 in 3.0 mi Calm Calm - 0.02 in Rain Light Rain
9:15 PM 46.4 °F - 46.4 °F 100% 30.02 in 2.0 mi Calm Calm - N/A Rain Light Rain
9:35 PM 46.4 °F 45.2 °F 46.4 °F 100% 30.03 in 3.0 mi NNW 3.5 mph - 0.01 in Rain Light Rain
9:55 PM 46.4 °F 43.5 °F 46.4 °F 100% 30.04 in 4.0 mi NNW 5.8 mph - 0.01 in   Mostly Cloudy
10:15 PM 44.6 °F 38.4 °F 41.0 °F 87% 30.06 in 4.0 mi NNW 12.7 mph 19.6 mph N/A   Overcast
10:35 PM 41.0 °F 33.9 °F 39.2 °F 93% 30.07 in 4.0 mi North 12.7 mph 23.0 mph N/A   Overcast
10:55 PM 41.0 °F 36.4 °F 39.2 °F 93% 30.07 in 3.0 mi North 6.9 mph - N/A   Overcast
11:15 PM 41.0 °F 35.2 °F 39.2 °F 93% 30.08 in 4.0 mi North 9.2 mph - N/A   Overcast
11:35 PM 41.0 °F 35.8 °F 39.2 °F 93% 30.08 in 3.0 mi North 8.1 mph - N/A   Overcast
11:55 PM 41.0 °F 35.2 °F 37.4 °F 87% 30.08 in 4.0 mi North 9.2 mph - N/A   Overcast